Hourly Weather Roundup
Issued by NWS Central Illinois

Home | Current Version | Previous Version | Text Only | Print | Product List | Glossary On
Versions: 1 2 3 4 5 6 7 8 9 10 11 12 13 14 15 16 17 18 19 20 21 22 23 24 25 26 27 28 29 30 31 32 33 34 35 36 37 38 39 40 41 42 43 44 45 46 47 48 49 50
000
NZUS43 KILX 311710
HWRILX

AREA WEATHER ROUNDUP
NATIONAL WEATHER SERVICE, LINCOLN IL
1200 PM CDT FRI JUL 31 2015


CITY           SKY/WX    TMP DP  RH WIND       PRES   REMARKS
BLOOMINGTON    SUNNY     85  68  56 W17       30.09S HX  88
CHAMPAIGN      SUNNY     85  69  58 W10       30.08S HX  89
DANVILLE       SUNNY     84  69  61 W10G16    30.03F HX  87
DECATUR        SUNNY     87  66  49 W14G20    30.09S HX  89
EFFINGHAM      SUNNY     86  61  42 W9G17     30.11S HX  86
FLORA          SUNNY     85  66  53 N6        30.10F HX  88
GALESBURG      SUNNY     83  67  59 W8        30.09S HX  85
JACKSONVILLE   SUNNY     87  70  56 NW10      30.10F HX  91
LACON          SUNNY     83  66  57 NW10G16   30.05S HX  85
LAWRENCEVILLE  SUNNY     86  63  45 N6        30.09S HX  87
LITCHFIELD     SUNNY     84  66  55 NW8       30.11F HX  86
$$


CITY           SKY/WX    TMP DP  RH WIND       PRES   REMARKS
LINCOLN        SUNNY     88  65  46 NW8       30.07S HX  90
MACOMB         SUNNY     84  67  56 NW9       30.11F HX  86
MATTOON        SUNNY     86  64  47 NW13G20   30.08F HX  87
MT CARMEL AP   SUNNY     86  61  42 CALM      30.09S HX  86
OLNEY-NOBLE AP SUNNY     84  70  61 N7        30.10F HX  88
PARIS          SUNNY     85  69  58 W10       30.08F HX  88
PEORIA         SUNNY     87  68  52 NW8       30.07F HX  90
PONTIAC        SUNNY     84  72  68 W13       30.05S HX  89
RANTOUL        SUNNY     87  71  58 W10       30.06F HX  92
ROBINSON       SUNNY     84  67  55 NW5       30.09F HX  87
SPRINGFIELD    SUNNY     86  68  54 W10       30.09F HX  89
TAYLORVILLE    SUNNY     82  68  61 W5G16     30.10S HX  85
$$

...REGIONAL REPORTS...


CITY           SKY/WX    TMP DP  RH WIND       PRES   REMARKS
CHICAGO O`HARE MOSUNNY   85  53  33 NW17G23   29.98F HX  83
KANKAKEE       SUNNY     85  69  57 W13       30.02F HX  89
MOLINE         SUNNY     87  57  35 NW14G20   30.06F HX  86
MOUNT STERLING NOT AVBL
MOUNT VERNON   SUNNY     86  64  48 N6        30.11F HX  87
PITTSFIELD     SUNNY     86  65  48 W7        30.12F HX  88
QUINCY         MOSUNNY   85  64  49 NW12      30.12S HX  86
ROCKFORD       MOSUNNY   85  55  35 W24G30    30.03F HX  83
$$


CITY           SKY/WX    TMP DP  RH WIND       PRES   REMARKS
BURLINGTON     SUNNY     84  68  58 NW7       30.09F HX  87
CEDAR RAPIDS   SUNNY     82  63  52 NW12      30.09S HX  83
DES MOINES     MOSUNNY   87  65  47 VRB3      30.11F HX  89
KIRKSVILLE     MOSUNNY   84  61  45 W8        30.15F HX  84
OTTUMWA        SUNNY     82  68  62 SW5       30.09F HX  85
ST LOUIS       SUNNY     90  66  45 NW8       30.12F HX  92
$$


CITY           SKY/WX    TMP DP  RH WIND       PRES   REMARKS
TERRE HAUTE    SUNNY     86  62  44 NW5       30.07F HX  86
EVANSVILLE     SUNNY     88  64  44 NE9       30.09F HX  89
INDIANAPOLIS   MOSUNNY   86  55  34 NW10      30.05F HX  84
LAFAYETTE      SUNNY     83  68  60 W8        30.03F HX  86
MADISON        MOSUNNY   80  49  33 NW14G29   30.00S
MILWAUKEE      MOSUNNY   83  51  33 W20G29    29.95F HX  81
$$




USA.gov is the U.S. government's official web portal to all federal, state and local government web resources and services.